QPF
0.00 0.00 0.00 0.00 0.00 0.00 0.00 0.00 0.00 0.00 0.00 0.00 0.00 0.00 0.00 0.00 0.00 0.00 0.00 0.00 0.00 0.00 0.00 0.00 0.00 0.00 0.00 0.00 0.00 0.00 0.00 0.00 0.00 0.00 0.00 0.00 0.00 0.00 0.00 0.01 0.01 0.01 0.00 0.00 0.01 0.00 0.00 0.00 0.00
0.00 0.00 0.00 0.00 0.00 0.00 0.00 0.00 0.00 0.00 0.00 0.00 0.00 0.00 0.00 0.00 0.00 0.00 0.00 0.00 0.00 0.00 0.00 0.00 0.00 0.00 0.00 0.00 0.00 0.00 0.00 0.00 0.00 0.01 0.00 0.00 0.01 0.00 0.01 0.01 0.00 0.00 0.00 0.00 0.00 0.00 0.00 0.00 0.00
0.00 0.00 0.00 0.00 0.00 0.00 0.00 0.00 0.00 0.00 0.00 0.00 0.00 0.00 0.00 0.00 0.00 0.00 0.00 0.00 0.00 0.00 0.00 0.00 0.00 0.00 0.00 0.00 0.00 0.00 0.00 0.00 0.00 0.01 0.01 0.00 0.04 0.01 0.01 0.01 0.00 0.00 0.00 0.00 0.00 0.00 0.00 0.00 0.00
0.00 0.00 0.00 0.00 0.00 0.00 0.00 0.00 0.00 0.00 0.00 0.00 0.00 0.00 0.00 0.00 0.01 0.00 0.00 0.00 0.00 0.00 0.00 0.00 0.00 0.00 0.00 0.00 0.00 0.00 0.00 0.00 0.00 0.00 0.02 0.01 0.04 0.05 0.02 0.01 0.00 0.00 0.00 0.00 0.00 0.00 0.00 0.00 0.00
0.00 0.00 0.00 0.00 0.00 0.00 0.00 0.00 0.00 0.00 0.00 0.00 0.00 0.00 0.00 0.00 0.02 0.03 0.07 0.06 0.01 0.00 0.00 0.00 0.00 0.00 0.00 0.00 0.00 0.00 0.00 0.00 0.00 0.00 0.00 0.01 0.04 0.10 0.02 0.00 0.00 0.00 0.00 0.00 0.00 0.00 0.00 0.00 0.00
0.00 0.00 0.00 0.00 0.00 0.00 0.00 0.00 0.00 0.00 0.00 0.00 0.00 0.00 0.00 0.00 0.01 0.08 0.12 0.17 0.17 0.05 0.00 0.00 0.00 0.00 0.00 0.00 0.00 0.00 0.00 0.00 0.01 0.00 0.00 0.01 0.03 0.11 0.02 0.00 0.00 0.00 0.00 0.00 0.00 0.00 0.00 0.00 0.00
0.00 0.00 0.00 0.00 0.00 0.00 0.00 0.00 0.00 0.00 0.00 0.00 0.00 0.00 0.00 0.00 0.00 0.05 0.11 0.14 0.19 0.22 0.06 0.01 0.00 0.00 0.00 0.00 0.00 0.00 0.00 0.00 0.01 0.01 0.01 0.02 0.01 0.08 0.02 0.00 0.00 0.00 0.00 0.00 0.00 0.00 0.00 0.00 0.00
0.00 0.00 0.00 0.00 0.00 0.00 0.00 0.00 0.00 0.00 0.00 0.00 0.00 0.00 0.00 0.00 0.00 0.03 0.06 0.12 0.12 0.12 0.16 0.11 0.02 0.00 0.00 0.00 0.00 0.00 0.01 0.01 0.03 0.03 0.01 0.02 0.00 0.04 0.05 0.00 0.00 0.00 0.00 0.00 0.00 0.00 0.00 0.00 0.00
0.00 0.00 0.00 0.00 0.00 0.00 0.00 0.00 0.00 0.00 0.00 0.00 0.00 0.00 0.00 0.00 0.00 0.01 0.02 0.03 0.08 0.10 0.11 0.12 0.09 0.02 0.00 0.00 0.00 0.00 0.01 0.01 0.02 0.03 0.02 0.05 0.01 0.00 0.00 0.00 0.00 0.00 0.00 0.00 0.00 0.00 0.00 0.00 0.00
0.00 0.00 0.00 0.00 0.00 0.00 0.00 0.00 0.00 0.00 0.00 0.00 0.00 0.00 0.00 0.00 0.00 0.00 0.01 0.02 0.03 0.03 0.03 0.04 0.03 0.01 0.00 0.01 0.01 0.00 0.00 0.00 0.02 0.01 0.02 0.03 0.01 0.00 0.00 0.00 0.00 0.00 0.00 0.00 0.00 0.00 0.00 0.00 0.00
0.00 0.00 0.00 0.00 0.00 0.00 0.00 0.00 0.00 0.00 0.00 0.00 0.00 0.00 0.00 0.00 0.00 0.00 0.00 0.00 0.02 0.03 0.03 0.04 0.04 0.02 0.00 0.00 0.01 0.01 0.00 0.00 0.00 0.01 0.02 0.01 0.00 0.00 0.00 0.00 0.00 0.00 0.00 0.00 0.00 0.00 0.00 0.00 0.00
0.00 0.00 0.00 0.00 0.00 0.00 0.00 0.00 0.00 0.00 0.00 0.00 0.00 0.00 0.00 0.00 0.00 0.00 0.00 0.00 0.00 0.01 0.02 0.02 0.01 0.00 0.00 0.00 0.00 0.00 0.00 0.00 0.00 0.03 0.03 0.01 0.00 0.00 0.00 0.00 0.00 0.00 0.00 0.00 0.00 0.00 0.00 0.00 0.00
0.00 0.00 0.00 0.00 0.00 0.00 0.00 0.00 0.00 0.00 0.00 0.00 0.00 0.00 0.00 0.00 0.00 0.00 0.00 0.00 0.00 0.00 0.01 0.03 0.04 0.04 0.02 0.00 0.00 0.00 0.00 0.00 0.00 0.04 0.04 0.02 0.00 0.00 0.00 0.00 0.00 0.00 0.00 0.00 0.00 0.00 0.00 0.00 0.00
0.00 0.00 0.00 0.00 0.00 0.00 0.00 0.00 0.00 0.00 0.00 0.00 0.00 0.00 0.00 0.00 0.00 0.00 0.00 0.00 0.00 0.00 0.00 0.00 0.00 0.00 0.01 0.01 0.00 0.00 0.00 0.00 0.00 0.08 0.06 0.01 0.01 0.00 0.01 0.00 0.00 0.00 0.00 0.00 0.00 0.00 0.00 0.00 0.00
0.00 0.00 0.00 0.00 0.00 0.00 0.00 0.00 0.00 0.00 0.00 0.00 0.00 0.00 0.00 0.00 0.00 0.00 0.00 0.00 0.00 0.00 0.00 0.00 0.00 0.00 0.00 0.00 0.00 0.00 0.00 0.00 0.00 0.04 0.15 0.12 0.04 0.02 0.01 0.00 0.00 0.00 0.00 0.00 0.00 0.00 0.00 0.00 0.00
0.00 0.00 0.00 0.00 0.00 0.00 0.00 0.00 0.00 0.00 0.00 0.00 0.00 0.00 0.00 0.00 0.00 0.00 0.00 0.00 0.00 0.00 0.00 0.00 0.00 0.00 0.00 0.00 0.00 0.00 0.00 0.00 0.00 0.00 0.09 0.16 0.21 0.08 0.03 0.01 0.00 0.00 0.00 0.00 0.00 0.00 0.00 0.00 0.00
0.00 0.00 0.00 0.00 0.00 0.00 0.00 0.00 0.00 0.00 0.00 0.00 0.00 0.00 0.00 0.00 0.00 0.00 0.00 0.00 0.00 0.00 0.00 0.00 0.00 0.00 0.00 0.00 0.00 0.00 0.00 0.00 0.00 0.01 0.11 0.37 0.28 0.26 0.07 0.03 0.00 0.00 0.00 0.00 0.00 0.00 0.00 0.00 0.00
0.00 0.00 0.00 0.00 0.00 0.00 0.00 0.00 0.00 0.00 0.00 0.00 0.00 0.00 0.00 0.00 0.00 0.00 0.00 0.00 0.00 0.00 0.00 0.00 0.00 0.00 0.00 0.00 0.00 0.00 0.00 0.00 0.00 0.01 0.03 0.22 0.65 0.48 0.28 0.07 0.01 0.00 0.00 0.00 0.00 0.00 0.00 0.00 0.00
0.00 0.00 0.00 0.00 0.00 0.00 0.00 0.00 0.00 0.00 0.00 0.00 0.00 0.00 0.00 0.00 0.00 0.00 0.00 0.00 0.00 0.00 0.00 0.00 0.00 0.00 0.00 0.00 0.00 0.02 0.02 0.00 0.00 0.01 0.02 0.04 0.14 0.36 0.29 0.08 0.04 0.01 0.00 0.00 0.00 0.00 0.00 0.00 0.00
0.00 0.00 0.00 0.00 0.00 0.00 0.00 0.00 0.00 0.00 0.00 0.00 0.00 0.00 0.00 0.00 0.00 0.00 0.00 0.00 0.00 0.00 0.00 0.00 0.00 0.00 0.00 0.00 0.00 0.01 0.04 0.01 0.00 0.01 0.04 0.04 0.06 0.09 0.16 0.09 0.01 0.00 0.00 0.00 0.00 0.00 0.00 0.00 0.00
0.00 0.00 0.00 0.00 0.00 0.00 0.00 0.00 0.00 0.00 0.00 0.00 0.00 0.00 0.00 0.00 0.00 0.00 0.00 0.00 0.00 0.00 0.00 0.00 0.00 0.00 0.00 0.00 0.00 0.01 0.05 0.06 0.04 0.03 0.03 0.05 0.08 0.10 0.08 0.07 0.05 0.01 0.00 0.00 0.00 0.00 0.00 0.00 0.00
0.00 0.00 0.00 0.00 0.01 0.00 0.00 0.01 0.00 0.00 0.00 0.00 0.00 0.00 0.00 0.00 0.00 0.00 0.00 0.02 0.02 0.00 0.00 0.00 0.00 0.00 0.00 0.00 0.00 0.01 0.03 0.07 0.04 0.02 0.03 0.03 0.05 0.11 0.11 0.08 0.04 0.01 0.00 0.01 0.01 0.00 0.00 0.01 0.01
0.00 0.00 0.00 0.00 0.00 0.01 0.00 0.03 0.00 0.00 0.00 0.00 0.00 0.00 0.00 0.00 0.00 0.01 0.04 0.06 0.03 0.04 0.03 0.01 0.02 0.01 0.01 0.01 0.01 0.02 0.07 0.08 0.12 0.09 0.08 0.05 0.08 0.09 0.11 0.06 0.04 0.02 0.01 0.04 0.07 0.07 0.07 0.06 0.05
0.00 0.00 0.00 0.00 0.01 0.02 0.01 0.06 0.01 0.00 0.00 0.00 0.00 0.00 0.00 0.00 0.01 0.02 0.05 0.05 0.04 0.06 0.11 0.06 0.04 0.06 0.08 0.06 0.10 0.22 0.07 0.13 0.16 0.17 0.10 0.05 0.04 0.05 0.12 0.23 0.24 0.23 0.18 0.18 0.16 0.10 0.06 0.04 0.03
0.00 0.01 0.00 0.00 0.03 0.01 0.02 0.07 0.02 0.02 0.00 0.00 0.00 0.00 0.01 0.04 0.10 0.09 0.10 0.14 0.06 0.07 0.14 0.06 0.01 0.06 0.23 0.26 0.29 0.43 0.33 0.22 0.24 0.24 0.20 0.11 0.07 0.06 0.05 0.09 0.17 0.21 0.18 0.15 0.11 0.06 0.02 0.02 0.02
0.00 0.00 0.04 0.03 0.02 0.02 0.01 0.05 0.07 0.08 0.03 0.02 0.01 0.03 0.27 0.48 0.51 0.26 0.15 0.20 0.10 0.16 0.16 0.15 0.15 0.20 0.35 0.40 0.62 0.41 0.79 0.54 0.43 0.32 0.27 0.19 0.14 0.13 0.12 0.11 0.15 0.16 0.10 0.07 0.06 0.03 0.01 0.00 0.01
0.00 0.02 0.05 0.06 0.03 0.06 0.05 0.09 0.18 0.27 0.17 0.06 0.19 0.43 0.48 0.28 0.48 0.34 0.39 0.67 0.35 0.46 0.48 0.52 0.47 0.39 0.24 0.15 0.18 0.21 0.33 0.39 0.35 0.27 0.22 0.16 0.11 0.09 0.09 0.08 0.07 0.07 0.05 0.03 0.02 0.02 0.02 0.02 0.02
0.00 0.05 0.06 0.04 0.04 0.05 0.07 0.11 0.29 0.37 0.32 0.30 0.42 0.43 0.31 0.30 0.40 0.30 0.36 0.38 0.31 0.27 0.33 0.27 0.23 0.17 0.09 0.06 0.10 0.14 0.17 0.16 0.14 0.12 0.08 0.08 0.11 0.10 0.08 0.04 0.03 0.03 0.01 0.01 0.02 0.03 0.01 0.01 0.01
0.04 0.05 0.02 0.01 0.00 0.02 0.04 0.18 0.31 0.36 0.33 0.29 0.33 0.32 0.31 0.27 0.23 0.22 0.24 0.21 0.17 0.17 0.14 0.09 0.03 0.01 0.01 0.02 0.03 0.04 0.03 0.03 0.04 0.03 0.03 0.02 0.04 0.03 0.03 0.01 0.00 0.00 0.01 0.02 0.01 0.01 0.01 0.01 0.01
0.01 0.01 0.00 0.00 0.00 0.00 0.02 0.16 0.29 0.33 0.24 0.16 0.15 0.12 0.08 0.03 0.02 0.01 0.01 0.00 0.00 0.01 0.00 0.00 0.00 0.00 0.00 0.00 0.00 0.00 0.00 0.00 0.00 0.00 0.00 0.00 0.00 0.00 0.00 0.00 0.00 0.00 0.00 0.01 0.01 0.01 0.01 0.01 0.00
MSLP
1013.73 1013.58 1013.70 1014.30 1016.16 1017.22 1017.20 1016.37 1015.22 1014.25 1013.29 1012.59 1011.84 1011.42 1011.22 1010.92 1010.91 1010.70 1009.48 1009.59 1009.60 1009.87 1010.12 1010.61 1011.01 1011.32 1011.64 1011.88 1012.27 1012.64 1012.96 1013.14 1013.32 1013.63 1013.79 1014.05 1014.33 1014.55 1014.71 1014.95 1015.28 1015.34 1015.64 1015.81 1016.07 1016.38 1016.49 1016.87 1017.15
1013.98 1013.73 1014.30 1015.79 1017.25 1017.85 1016.89 1016.09 1015.12 1014.19 1013.53 1012.66 1011.64 1011.19 1011.02 1010.65 1010.17 1009.83 1009.70 1009.66 1009.72 1009.96 1010.12 1010.55 1011.03 1011.38 1011.75 1012.07 1012.37 1012.67 1012.95 1013.24 1013.35 1013.63 1013.90 1014.10 1014.39 1014.62 1014.83 1015.01 1015.25 1015.51 1015.90 1016.12 1016.39 1016.77 1016.89 1017.18 1017.44
1013.98 1014.17 1015.46 1016.82 1017.92 1017.72 1016.64 1015.34 1014.86 1014.11 1013.45 1012.89 1012.14 1011.33 1011.01 1010.57 1010.08 1009.54 1009.02 1009.47 1009.99 1010.44 1010.48 1010.73 1011.01 1011.50 1011.84 1012.08 1012.43 1012.68 1012.98 1013.22 1013.44 1013.64 1013.90 1014.11 1014.38 1014.64 1014.91 1015.13 1015.40 1015.76 1016.20 1016.48 1016.80 1017.15 1017.28 1017.42 1017.60
1014.59 1015.27 1016.89 1017.32 1018.05 1017.10 1016.28 1015.16 1014.43 1014.32 1013.67 1013.03 1012.88 1012.24 1011.08 1010.23 1010.05 1009.69 1009.57 1009.39 1010.16 1010.72 1010.95 1010.92 1011.00 1011.27 1011.78 1012.19 1012.46 1012.76 1013.01 1013.26 1013.48 1013.75 1013.96 1014.18 1014.40 1014.68 1014.98 1015.33 1015.60 1016.13 1016.55 1016.88 1017.14 1017.48 1017.65 1017.65 1017.81
1015.40 1016.66 1017.87 1018.10 1017.72 1016.63 1015.81 1015.05 1014.63 1014.40 1014.14 1013.78 1013.25 1012.59 1011.77 1010.57 1010.30 1009.91 1010.23 1010.35 1009.85 1010.34 1010.77 1011.27 1011.42 1011.49 1011.67 1012.05 1012.49 1012.71 1013.03 1013.29 1013.55 1013.76 1014.07 1014.32 1014.56 1014.84 1015.21 1015.57 1015.93 1016.31 1016.70 1017.10 1017.38 1017.61 1017.84 1017.90 1017.95
1016.65 1017.53 1018.50 1018.61 1017.83 1016.64 1015.77 1015.02 1014.83 1014.58 1014.30 1013.89 1013.57 1013.17 1012.22 1011.77 1011.28 1010.90 1010.28 1010.79 1011.06 1011.18 1011.04 1011.09 1011.43 1011.59 1011.74 1012.06 1012.36 1012.71 1012.97 1013.29 1013.55 1013.83 1014.04 1014.29 1014.63 1014.94 1015.39 1015.81 1016.19 1016.41 1016.78 1017.15 1017.38 1017.63 1017.89 1018.09 1018.15
1017.22 1018.21 1018.43 1018.25 1017.72 1016.93 1015.94 1014.98 1014.79 1014.69 1014.61 1014.12 1013.73 1013.54 1012.96 1012.32 1012.26 1011.78 1011.04 1010.93 1011.12 1011.08 1011.64 1011.74 1011.68 1011.79 1011.85 1012.17 1012.50 1012.69 1013.00 1013.15 1013.52 1013.91 1014.13 1014.36 1014.63 1015.10 1015.54 1016.01 1016.38 1016.61 1016.76 1017.16 1017.49 1017.67 1017.89 1018.20 1018.37
1017.59 1018.39 1018.61 1018.20 1017.79 1016.90 1015.92 1015.54 1015.07 1014.81 1014.69 1014.32 1013.95 1013.79 1013.83 1013.54 1012.85 1012.43 1012.14 1011.65 1011.72 1011.82 1011.84 1011.97 1012.28 1012.17 1012.30 1012.45 1012.64 1012.83 1013.03 1013.38 1013.52 1013.87 1014.20 1014.60 1014.73 1015.13 1015.58 1016.04 1016.48 1016.76 1016.96 1017.14 1017.50 1017.76 1017.98 1018.21 1018.43
1017.56 1018.56 1018.91 1018.27 1017.75 1016.87 1016.44 1016.29 1015.79 1015.36 1015.04 1014.91 1014.39 1014.18 1014.11 1013.66 1013.14 1012.69 1012.73 1012.68 1012.37 1012.19 1012.40 1012.28 1012.49 1012.68 1012.53 1012.71 1012.72 1012.88 1013.05 1013.41 1013.68 1013.84 1014.10 1014.56 1014.97 1015.23 1015.52 1015.92 1016.39 1016.84 1017.14 1017.25 1017.51 1017.75 1017.97 1018.27 1018.48
1018.13 1018.79 1018.71 1018.17 1017.57 1017.10 1016.78 1016.79 1016.55 1016.09 1015.55 1015.12 1014.81 1014.32 1013.99 1013.60 1013.52 1013.50 1013.12 1013.19 1013.20 1012.80 1012.60 1012.68 1012.38 1012.63 1012.44 1012.62 1012.61 1012.83 1013.14 1013.57 1013.90 1013.92 1014.20 1014.54 1014.88 1015.30 1015.48 1015.78 1016.18 1016.64 1017.19 1017.44 1017.57 1017.78 1017.98 1018.32 1018.63
1018.55 1018.79 1018.46 1018.03 1017.71 1017.53 1017.25 1016.81 1016.71 1016.38 1015.62 1015.35 1014.96 1014.90 1014.79 1014.38 1013.91 1013.73 1013.60 1013.33 1013.19 1013.22 1013.22 1013.34 1012.88 1012.26 1012.34 1012.52 1012.56 1012.70 1012.96 1013.50 1013.89 1014.24 1014.27 1014.47 1014.71 1015.09 1015.61 1015.73 1016.01 1016.34 1016.92 1017.50 1017.66 1017.94 1018.18 1018.40 1018.61
1019.01 1018.64 1018.49 1018.16 1017.90 1017.88 1017.67 1017.18 1016.71 1016.53 1015.73 1015.42 1014.98 1014.61 1014.60 1014.68 1014.29 1013.76 1013.57 1013.39 1013.21 1012.93 1013.20 1013.27 1013.15 1013.10 1012.65 1012.61 1012.62 1012.62 1012.73 1013.27 1013.53 1014.10 1014.56 1014.55 1014.61 1014.79 1015.33 1015.66 1015.75 1016.09 1016.60 1017.26 1017.67 1018.08 1018.31 1018.51 1018.60
1019.14 1018.93 1018.61 1018.20 1018.20 1017.87 1017.50 1017.25 1016.93 1015.64 1015.55 1014.83 1014.23 1014.25 1014.23 1014.38 1014.31 1013.74 1013.20 1013.09 1013.00 1012.89 1012.73 1012.93 1013.14 1013.13 1013.09 1013.13 1012.98 1012.78 1012.88 1013.08 1013.07 1013.20 1014.22 1014.64 1014.51 1014.69 1014.83 1015.48 1015.70 1015.99 1016.40 1016.85 1017.48 1017.91 1018.26 1018.53 1018.63
1019.54 1019.20 1018.86 1018.26 1017.87 1017.73 1017.21 1016.81 1016.86 1015.29 1014.89 1014.56 1014.04 1013.61 1013.65 1013.72 1013.71 1013.58 1013.08 1012.61 1012.71 1012.57 1012.58 1012.56 1012.61 1012.78 1012.92 1013.17 1013.14 1013.18 1013.06 1013.20 1013.21 1013.30 1012.88 1014.16 1014.20 1014.39 1014.50 1015.02 1015.59 1015.77 1016.15 1016.69 1017.16 1017.66 1018.07 1018.30 1018.52
1019.50 1019.40 1018.81 1017.82 1017.53 1017.21 1016.79 1016.53 1015.84 1014.50 1014.60 1014.29 1013.59 1013.16 1012.91 1013.09 1012.97 1012.93 1012.77 1012.36 1012.07 1012.03 1011.99 1012.25 1012.26 1012.45 1012.59 1012.70 1012.84 1013.14 1012.99 1012.81 1013.06 1013.36 1012.82 1012.45 1014.13 1014.32 1014.16 1014.50 1015.05 1015.47 1015.91 1016.34 1017.05 1017.59 1017.88 1018.18 1018.16
1020.04 1020.06 1019.62 1017.90 1017.45 1016.94 1017.07 1015.64 1014.65 1014.40 1014.36 1014.05 1013.38 1012.81 1012.46 1012.37 1012.34 1012.09 1011.89 1011.75 1011.42 1011.59 1011.51 1011.42 1011.76 1011.90 1012.20 1012.38 1012.50 1012.80 1012.86 1012.84 1012.85 1013.05 1013.06 1012.87 1013.16 1013.60 1014.31 1014.23 1014.50 1015.20 1015.82 1016.31 1016.65 1017.47 1017.83 1017.88 1017.99
1020.65 1020.68 1019.89 1018.44 1017.20 1017.12 1016.87 1015.16 1014.33 1014.09 1014.07 1013.70 1013.12 1012.59 1012.12 1011.88 1011.85 1011.70 1011.37 1011.06 1010.79 1010.82 1010.94 1011.07 1011.34 1011.42 1011.71 1012.20 1012.34 1012.46 1012.55 1012.72 1012.56 1012.66 1013.07 1013.22 1012.38 1013.56 1013.86 1013.94 1014.22 1014.97 1015.78 1016.28 1016.61 1017.16 1017.67 1017.76 1017.75
1020.64 1020.48 1019.56 1018.71 1017.55 1017.09 1016.69 1015.09 1013.86 1013.14 1013.45 1012.95 1012.61 1012.23 1011.73 1011.60 1011.07 1011.05 1010.83 1010.44 1010.32 1010.22 1010.43 1010.72 1011.06 1011.19 1011.45 1011.78 1012.01 1012.06 1012.05 1012.22 1012.11 1012.00 1012.43 1012.84 1012.77 1013.10 1011.89 1013.70 1014.27 1014.78 1015.83 1016.23 1016.77 1016.88 1017.24 1017.47 1017.39
1020.22 1019.99 1019.24 1018.14 1017.52 1017.13 1015.85 1014.75 1013.12 1012.05 1012.50 1012.34 1012.08 1011.89 1011.38 1010.90 1010.31 1010.30 1010.07 1009.85 1009.90 1009.75 1009.88 1010.08 1010.51 1010.70 1011.22 1011.57 1011.61 1011.37 1011.18 1011.48 1011.72 1011.56 1011.75 1012.21 1012.60 1011.86 1013.17 1013.88 1014.84 1014.83 1015.94 1015.55 1016.42 1016.67 1016.93 1017.45 1017.16
1019.34 1018.96 1018.17 1017.33 1016.42 1016.38 1015.02 1013.66 1012.55 1011.88 1011.47 1011.14 1011.10 1011.19 1011.03 1010.85 1010.23 1009.80 1009.53 1009.45 1009.30 1009.25 1009.15 1009.57 1009.98 1010.31 1010.56 1010.99 1011.09 1010.91 1010.73 1010.92 1011.25 1011.41 1011.49 1011.76 1012.17 1011.64 1013.36 1014.12 1014.48 1014.75 1015.13 1015.22 1016.04 1016.30 1016.43 1016.82 1016.98
1018.37 1017.84 1017.17 1016.99 1016.00 1015.15 1014.62 1012.89 1012.06 1011.29 1011.02 1010.77 1010.74 1010.61 1010.39 1010.11 1009.79 1009.24 1008.91 1008.75 1008.53 1008.64 1008.70 1008.93 1009.35 1009.83 1010.09 1010.29 1010.70 1010.70 1010.83 1010.79 1011.03 1011.44 1011.60 1011.84 1011.95 1012.01 1012.91 1013.47 1014.24 1014.01 1014.72 1015.16 1015.32 1015.73 1016.05 1016.66 1016.65
1017.30 1016.38 1016.20 1016.00 1015.97 1015.31 1015.07 1013.42 1011.98 1011.57 1010.94 1010.93 1010.77 1010.54 1010.13 1009.84 1009.35 1008.85 1008.41 1008.12 1008.08 1007.89 1008.00 1008.45 1009.00 1009.47 1009.56 1009.71 1010.15 1010.27 1010.49 1010.42 1010.47 1011.18 1011.38 1011.67 1011.76 1011.97 1012.62 1013.00 1013.15 1013.47 1014.31 1014.72 1014.78 1015.31 1015.86 1015.97 1016.31
1016.32 1015.88 1015.86 1015.73 1015.48 1015.32 1014.37 1014.53 1011.64 1011.70 1011.23 1011.05 1010.75 1010.23 1009.62 1009.35 1009.14 1008.65 1008.14 1007.63 1007.21 1007.36 1007.63 1008.05 1008.67 1008.69 1008.88 1009.37 1009.68 1010.15 1010.31 1010.46 1010.60 1010.97 1011.37 1011.52 1011.92 1012.34 1012.28 1012.17 1012.78 1013.38 1013.79 1014.33 1014.64 1015.07 1015.42 1015.55 1015.85
1015.81 1015.73 1014.99 1014.83 1014.84 1014.40 1013.85 1013.97 1012.08 1012.33 1011.85 1010.90 1010.37 1009.77 1009.25 1008.71 1008.33 1007.93 1007.49 1007.13 1006.97 1006.95 1007.09 1007.59 1008.25 1008.12 1008.46 1009.30 1009.43 1009.74 1010.09 1010.45 1010.50 1010.93 1011.22 1011.56 1011.86 1012.19 1012.53 1012.47 1012.81 1013.18 1013.53 1013.80 1014.18 1014.41 1015.01 1015.23 1015.42
1015.86 1015.70 1015.12 1014.89 1014.49 1013.75 1013.49 1013.44 1012.92 1012.26 1011.08 1010.05 1009.85 1009.70 1009.23 1008.81 1008.51 1007.96 1007.57 1006.94 1006.82 1006.75 1006.93 1007.37 1007.68 1008.34 1008.12 1008.97 1009.11 1009.12 1009.43 1009.72 1010.40 1010.64 1011.00 1011.50 1011.87 1012.27 1012.47 1012.21 1012.89 1013.57 1013.76 1013.92 1014.27 1014.29 1014.63 1014.77 1015.05
1015.52 1015.63 1015.48 1015.15 1014.33 1013.62 1013.43 1013.61 1013.20 1012.69 1010.71 1010.13 1009.79 1009.82 1009.70 1009.22 1008.71 1008.14 1007.64 1007.36 1007.42 1007.28 1006.95 1007.44 1008.11 1008.84 1009.22 1009.14 1008.88 1008.95 1008.91 1009.53 1010.20 1010.49 1010.93 1011.37 1011.62 1011.81 1012.16 1012.87 1013.28 1013.51 1013.76 1014.06 1014.38 1014.74 1014.58 1014.60 1014.93
1014.79 1015.06 1014.92 1014.72 1014.12 1013.74 1013.59 1013.73 1013.71 1012.95 1011.55 1010.92 1010.48 1010.26 1010.37 1009.52 1009.22 1008.91 1008.62 1008.51 1008.01 1008.04 1008.48 1008.46 1009.02 1009.56 1008.84 1009.23 1009.21 1009.59 1009.82 1010.31 1010.55 1010.96 1011.24 1011.42 1011.76 1012.03 1012.37 1012.73 1012.92 1013.25 1013.50 1013.91 1014.00 1014.40 1014.59 1014.43 1014.62
1014.82 1015.01 1014.89 1014.55 1014.10 1013.55 1013.57 1014.05 1014.88 1013.98 1013.20 1012.07 1011.87 1011.45 1011.25 1010.87 1010.41 1009.85 1009.49 1009.24 1009.22 1009.03 1009.31 1009.69 1009.68 1009.52 1009.83 1010.00 1010.21 1010.45 1010.69 1010.63 1011.04 1011.42 1011.70 1011.88 1012.15 1012.26 1012.55 1012.72 1012.90 1013.22 1013.50 1013.79 1014.05 1013.99 1013.94 1014.05 1014.15
1014.72 1014.63 1014.54 1014.40 1014.20 1014.13 1014.32 1015.06 1015.47 1015.03 1014.27 1013.40 1013.08 1012.55 1012.46 1012.38 1012.24 1011.98 1011.69 1011.08 1010.50 1010.14 1010.34 1010.30 1010.11 1010.23 1010.43 1010.95 1011.37 1011.50 1011.70 1011.62 1011.79 1011.91 1012.10 1012.10 1012.19 1012.39 1012.48 1012.56 1012.76 1013.00 1013.16 1013.38 1013.66 1013.38 1013.43 1013.40 1013.21
1014.02 1014.14 1014.14 1014.23 1014.22 1014.60 1015.02 1015.86 1015.82 1015.39 1014.93 1014.33 1014.13 1013.76 1013.65 1013.33 1013.28 1013.16 1012.78 1012.40 1012.02 1011.92 1011.72 1011.62 1011.64 1011.66 1012.01 1012.16 1012.24 1012.45 1012.32 1012.35 1012.46 1012.79 1013.03 1013.05 1013.09 1012.99 1013.04 1013.27 1013.29 1013.27 1013.27 1013.14 1013.26 1013.00 1012.95 1012.82 1012.79
Thickness
5680 5685 5686 5679 5653 5643 5647 5664 5685 5693 5700 5707 5713 5717 5713 5723 5719 5707 5754 5757 5758 5756 5755 5755 5754 5753 5753 5753 5752 5751 5751 5751 5751 5749 5750 5749 5748 5748 5747 5745 5743 5743 5741 5740 5738 5735 5734 5731 5728
5669 5675 5672 5654 5633 5631 5644 5664 5676 5682 5690 5696 5708 5712 5714 5717 5734 5742 5745 5753 5754 5751 5750 5749 5748 5748 5748 5748 5748 5748 5747 5747 5749 5747 5746 5747 5745 5745 5744 5743 5742 5740 5738 5737 5734 5731 5730 5728 5725
5661 5662 5651 5637 5623 5631 5647 5666 5670 5680 5684 5691 5697 5710 5710 5716 5733 5741 5753 5751 5746 5744 5743 5742 5742 5742 5741 5743 5744 5745 5744 5744 5745 5745 5744 5744 5743 5743 5741 5740 5739 5737 5734 5732 5730 5728 5727 5725 5724
5648 5644 5632 5623 5625 5638 5649 5664 5671 5669 5677 5682 5685 5685 5708 5727 5729 5740 5745 5748 5740 5736 5734 5736 5737 5738 5737 5737 5739 5740 5741 5741 5741 5741 5741 5741 5740 5739 5739 5737 5736 5732 5729 5727 5726 5724 5723 5722 5721
5634 5624 5610 5615 5623 5639 5648 5656 5661 5660 5663 5667 5674 5678 5689 5714 5726 5734 5734 5736 5739 5735 5733 5729 5730 5731 5731 5733 5733 5736 5736 5737 5737 5737 5736 5736 5736 5734 5734 5733 5732 5729 5727 5723 5722 5721 5719 5719 5718
5615 5612 5602 5605 5616 5632 5640 5647 5651 5654 5657 5661 5664 5669 5681 5698 5710 5717 5728 5724 5725 5723 5726 5728 5726 5726 5727 5728 5728 5730 5732 5732 5733 5733 5733 5732 5732 5731 5729 5728 5727 5726 5724 5721 5720 5718 5717 5716 5715
5605 5597 5602 5607 5613 5621 5630 5642 5644 5645 5644 5652 5660 5659 5671 5683 5695 5705 5713 5716 5717 5717 5716 5718 5720 5721 5722 5722 5721 5723 5724 5728 5728 5728 5728 5728 5728 5726 5724 5722 5722 5721 5721 5719 5716 5715 5714 5713 5711
5593 5592 5597 5600 5604 5611 5626 5628 5635 5639 5640 5646 5653 5648 5654 5663 5683 5692 5697 5702 5703 5705 5708 5710 5712 5714 5715 5715 5716 5717 5717 5717 5721 5722 5723 5721 5723 5722 5719 5718 5717 5716 5715 5715 5714 5712 5711 5710 5708
5593 5580 5575 5594 5596 5607 5609 5610 5618 5626 5631 5631 5640 5645 5653 5656 5667 5681 5684 5687 5691 5695 5696 5701 5702 5704 5708 5708 5710 5710 5712 5712 5712 5715 5718 5718 5718 5717 5717 5716 5714 5711 5710 5710 5709 5708 5707 5706 5704
5575 5563 5574 5585 5592 5598 5600 5602 5602 5609 5615 5624 5627 5636 5643 5650 5651 5658 5670 5673 5677 5683 5688 5691 5697 5698 5702 5704 5706 5706 5704 5704 5705 5709 5711 5711 5713 5712 5711 5713 5711 5709 5705 5705 5704 5703 5703 5702 5701
5569 5564 5570 5581 5583 5586 5590 5594 5596 5598 5607 5611 5616 5619 5624 5632 5639 5642 5654 5662 5668 5673 5677 5680 5686 5694 5697 5699 5701 5702 5701 5699 5698 5700 5703 5705 5707 5708 5706 5707 5708 5708 5704 5700 5700 5698 5698 5698 5699
5557 5565 5566 5571 5572 5574 5575 5583 5585 5588 5598 5599 5609 5614 5616 5620 5627 5633 5639 5650 5657 5666 5669 5672 5676 5680 5687 5692 5694 5696 5697 5696 5696 5693 5693 5697 5701 5702 5702 5703 5704 5704 5702 5698 5696 5694 5693 5693 5694
5547 5551 5557 5560 5559 5562 5568 5570 5572 5589 5587 5595 5604 5607 5607 5607 5613 5622 5629 5637 5646 5652 5661 5666 5668 5672 5675 5678 5683 5687 5690 5690 5693 5694 5688 5689 5694 5697 5699 5698 5699 5699 5698 5697 5693 5690 5688 5688 5688
5534 5539 5541 5549 5552 5555 5560 5566 5565 5577 5580 5586 5595 5600 5600 5603 5606 5611 5621 5628 5634 5643 5650 5655 5662 5665 5667 5669 5673 5676 5680 5682 5685 5686 5692 5683 5688 5692 5695 5695 5693 5695 5693 5692 5689 5687 5685 5685 5683
5529 5528 5533 5542 5547 5546 5555 5556 5559 5570 5569 5576 5587 5596 5597 5596 5599 5603 5611 5621 5628 5634 5641 5645 5652 5658 5661 5664 5666 5667 5670 5675 5678 5677 5684 5690 5679 5682 5688 5691 5691 5688 5689 5688 5684 5681 5681 5680 5680
5511 5514 5504 5540 5541 5542 5544 5554 5564 5557 5556 5563 5575 5585 5591 5590 5595 5601 5606 5612 5621 5625 5631 5639 5643 5651 5653 5656 5659 5659 5661 5665 5670 5671 5674 5678 5680 5671 5675 5684 5686 5682 5680 5681 5681 5675 5674 5675 5676
5494 5479 5492 5515 5535 5534 5530 5544 5557 5550 5549 5555 5563 5570 5577 5581 5581 5588 5596 5604 5613 5619 5624 5628 5632 5641 5646 5647 5651 5653 5654 5657 5662 5664 5664 5667 5679 5668 5667 5676 5678 5674 5671 5672 5673 5671 5669 5668 5670
5496 5485 5497 5500 5516 5524 5521 5535 5551 5548 5544 5549 5552 5551 5562 5568 5577 5577 5587 5595 5600 5609 5615 5617 5621 5629 5635 5637 5642 5647 5650 5652 5656 5660 5660 5661 5668 5674 5666 5663 5665 5664 5659 5662 5660 5664 5665 5662 5665
5486 5490 5495 5503 5508 5510 5513 5522 5542 5549 5539 5535 5535 5534 5546 5558 5567 5570 5578 5585 5591 5597 5604 5610 5615 5621 5624 5626 5633 5641 5647 5647 5649 5655 5654 5656 5658 5670 5658 5650 5649 5652 5650 5660 5656 5653 5657 5652 5658
5494 5494 5503 5506 5511 5506 5516 5526 5539 5544 5541 5538 5536 5532 5535 5541 5548 5558 5565 5572 5583 5592 5599 5602 5607 5611 5619 5618 5626 5633 5640 5641 5642 5645 5646 5647 5649 5660 5650 5647 5645 5649 5647 5652 5649 5647 5650 5649 5649
5495 5497 5508 5504 5505 5516 5515 5522 5532 5543 5540 5539 5536 5535 5537 5538 5539 5545 5555 5564 5574 5582 5591 5597 5599 5603 5610 5616 5619 5625 5630 5632 5634 5632 5634 5637 5640 5646 5643 5639 5639 5645 5642 5641 5643 5642 5643 5638 5643
5496 5511 5512 5513 5506 5506 5512 5519 5537 5527 5532 5531 5527 5527 5529 5531 5533 5534 5543 5554 5563 5573 5582 5588 5591 5597 5607 5613 5616 5620 5622 5626 5628 5623 5625 5627 5630 5637 5637 5637 5641 5639 5637 5637 5640 5638 5635 5637 5636
5501 5510 5505 5503 5505 5498 5520 5509 5530 5518 5522 5523 5523 5524 5530 5529 5527 5524 5532 5544 5557 5567 5577 5586 5590 5598 5607 5610 5613 5614 5615 5618 5618 5621 5618 5621 5622 5625 5628 5634 5637 5635 5632 5629 5628 5627 5627 5629 5628
5508 5506 5512 5508 5510 5517 5513 5514 5495 5513 5516 5518 5520 5526 5532 5533 5535 5535 5537 5543 5553 5563 5576 5582 5589 5602 5607 5607 5611 5612 5610 5609 5616 5617 5619 5620 5621 5624 5625 5631 5629 5627 5627 5628 5625 5623 5623 5624 5626
5504 5508 5490 5500 5500 5517 5523 5523 5508 5512 5516 5529 5524 5531 5534 5536 5537 5543 5546 5554 5561 5568 5576 5584 5594 5599 5608 5604 5607 5612 5613 5615 5614 5615 5615 5615 5617 5617 5623 5628 5623 5618 5619 5620 5620 5623 5623 5624 5622
5508 5509 5510 5517 5499 5518 5523 5522 5518 5506 5535 5535 5533 5532 5531 5533 5541 5549 5554 5559 5564 5571 5584 5589 5591 5593 5595 5601 5608 5611 5614 5612 5609 5610 5610 5613 5615 5618 5618 5615 5614 5615 5616 5617 5617 5614 5615 5615 5614
5519 5517 5513 5515 5516 5527 5523 5514 5504 5508 5531 5534 5534 5534 5532 5543 5541 5546 5549 5552 5562 5569 5573 5581 5584 5585 5596 5598 5604 5604 5604 5602 5602 5603 5606 5611 5611 5611 5612 5612 5614 5615 5614 5613 5613 5611 5609 5611 5610
5512 5511 5520 5517 5530 5537 5531 5522 5501 5502 5507 5529 5527 5531 5531 5534 5536 5541 5545 5552 5558 5565 5568 5572 5578 5584 5588 5591 5595 5596 5599 5601 5601 5600 5600 5604 5605 5607 5608 5609 5611 5610 5610 5608 5607 5607 5607 5604 5602
5518 5520 5521 5523 5520 5529 5533 5524 5493 5499 5505 5521 5520 5526 5527 5526 5527 5531 5535 5542 5551 5559 5563 5570 5577 5581 5584 5585 5586 5587 5591 5594 5594 5595 5597 5601 5602 5603 5606 5608 5609 5609 5608 5607 5603 5606 5603 5603 5605
5532 5530 5532 5519 5534 5512 5515 5519 5499 5507 5511 5521 5522 5526 5529 5531 5531 5531 5536 5542 5548 5552 5557 5563 5567 5570 5570 5574 5578 5580 5587 5589 5590 5589 5588 5591 5592 5595 5597 5597 5600 5602 5601 5603 5600 5602 5601 5601 5600